This demonstration page uses our WeatherBlox Daily Observations layout. Learn more.

Left ArrowRight Arrow

Hourly Observations for October 11, 2021

Temp ( °F °C ) Dew Point ( °F °C ) Humidity (%) Winds ( mph kmh ) Pressure ( in mb ) Visibility ( mi km ) Precip ( " mm )
12:53 am 00:53 Clear 63 17.2 61 16.1 93 93 Calm 29.97 1015 10 16 0.00 0.00
1:53 am 01:53 Clear 63 17.2 61 16.1 93 93 Calm 29.96 1015 10 16 0.00 0.00
2:53 am 02:53 Clear 62 16.7 61 16.1 96 96 Calm 29.96 1014 10 16 0.00 0.00
3:53 am 03:53 Clear 60 15.6 59 15 96 96 Calm 29.94 1014 9 14 0.00 0.00
4:53 am 04:53 Clear 61 16.1 59 15 93 93 Calm 29.97 1015 10 16 0.00 0.00
5:53 am 05:53 Clear 60 15.6 59 15 96 96 Calm 29.99 1016 9 14 0.00 0.00
6:53 am 06:53 Clear 60 15.6 58 14.4 93 93 Calm 30.00 1016 10 16 0.00 0.00
7:53 am 07:53 Sunny 60 15.6 59 15 96 96 Calm 30.03 1017 10 16 0.00 0.00
8:53 am 08:53 Sunny with Light Rain 65 18.3 62 16.7 90 90 Calm 30.04 1017 10 16 0.00 0.00
9:53 am 09:53 Sunny 68 20 65 18.3 90 90 N 3 6 30.05 1018 10 16 0.00 0.00
10:53 am 10:53 Partly Cloudy 72 22.2 63 17.2 73 73 E 9 15 30.04 1017 10 16 0.00 0.00
11:53 am 11:53 Mostly Sunny 74 23.3 64 17.8 71 71 S 9 15 30.03 1017 10 16 0.00 0.00
12:42 pm 12:42 Mostly Cloudy 74 23.3 63 17.2 69 69 E 6 9 30.01 1016 10 16 0.00 0.00
12:53 pm 12:53 Mostly Cloudy 75 23.9 63 17.2 66 66 E 8 13 30.01 1016 10 16 0.00 0.00
1:51 pm 13:51 Partly Cloudy 75 24 63 17 65 65 SSE 8 13 29.98 1015 10 16 0.00 0.00
1:53 pm 13:53 Partly Cloudy 76 24.4 62 16.7 62 62 SSE 7 11 29.99 1016 10 16 0.00 0.00
2:53 pm 14:53 Partly Cloudy 77 25 62 16.7 60 60 VRB 3 6 29.95 1014 10 16 0.00 0.00
3:53 pm 15:53 Mostly Cloudy 78 25.6 61 16.1 56 56 ESE 7 11 29.95 1014 10 16 0.00 0.00
4:53 pm 16:53 Partly Cloudy 78 25.6 62 16.7 58 58 VRB 3 6 29.95 1014 10 16 0.00 0.00
5:53 pm 17:53 Cloudy 77 25 62 16.7 60 60 ESE 7 11 29.95 1014 10 16 0.00 0.00
6:53 pm 18:53 Sunny 76 24.4 63 17.2 64 64 ESE 5 7 29.96 1014 10 16 0.00 0.00
7:53 pm 19:53 Clear 73 22.8 63 17.2 71 71 SE 7 11 29.96 1015 10 16 0.00 0.00
8:53 pm 20:53 Clear 71 21.7 64 17.8 79 79 VRB 3 6 29.98 1015 10 16 0.00 0.00
9:53 pm 21:53 Clear 70 21.1 64 17.8 82 82 Calm 30.01 1016 10 16 0.00 0.00
10:53 pm 22:53 Clear 65 18.3 64 17.8 97 97 Calm 30.03 1017 10 16 0.00 0.00
11:53 pm 23:53 Clear 64 17.8 62 16.7 93 93 Calm 30.03 1017 10 16 0.00 0.00

Powered by AerisWeather